Location: Asheville, NC
(35.6000°N, 82.5500°W)
Time: 22:40:34
(UTC-04:00)

Vanguard 1 - Pass Details

Date: 08 December 2017
Orbit: 650 x 3833 km, 34.2° (Epoch: 25 April)

Event Time Altitude Azimuth Distance (km) Brightness Sun altitude
Rises 13:23:34 0° 265° (W) 6,858 14.6 29.8°
Reaches altitude 10° 13:28:50 10° 265° (W) 5,362 14.2 29.5°
Maximum altitude 13:42:52 84° 180° (S) 1,600 11.7 28.6°
Drops below altitude 10° 13:50:08 10° 93° (E) 2,936 12.4 28.0°
Sets 13:52:13 0° 93° (E) 3,660 12.8 27.9°
